contact:dominique.lefevre@mio.osupytheas.fr, maurice.libes@osupytheas.fr, didier.mallarino@osupytheas.fr
Project:EMSO http://www.emso-fr.org/EMSO-France
Depth: 2436.0 m
Title:EMSO Ligure Ouest : Data MII capteur AQUADOPP
Date,Latitude,Longitude,X_East,Y_North,Z_Up,Amplitude_X,Amplitude_Y,Amplitude_Z,Batterie,SoundSpeed,Heading,Pitch,Roll,Pressure,TIS,Speed,Direction
, degrees North, degrees East, m.s-1, m.s-1,m.s-1, 1, 1, 1, Volt, m.s-1, degree, degree, degree, dbar, degree_C, m.s-1, degree
2021-07-04T00:04:03,42.805,6.029,-0.024,-0.008,-0.01,105.0,105.0,103.0,13.4,1505.2,327.5,-0.8,1.8,2470.503,13.28,0.025,251.6
2021-07-04T00:07:03,42.805,6.029,0.001,0.02,-0.015,105.0,105.0,104.0,13.4,1505.2,326.5,-0.7,1.8,2470.514,13.28,0.02,2.9
2021-07-04T00:10:03,42.805,6.029,-0.011,0.01,-0.006,106.0,107.0,103.0,13.4,1505.2,326.8,-0.8,1.8,2470.483,13.28,0.014,312.3
2021-07-04T00:13:03,42.805,6.029,-0.018,0.005,-0.033,105.0,105.0,103.0,13.3,1505.2,329.9,-0.8,1.8,2470.481,13.29,0.018,285.5
2021-07-04T00:16:03,42.805,6.029,-0.026,0.009,-0.016,106.0,105.0,103.0,13.4,1505.2,325.4,-0.7,1.8,2470.458,13.29,0.027,289.1
2021-07-04T00:19:03,42.805,6.029,-0.019,0.005,-0.021,105.0,106.0,103.0,13.4,1505.2,325.7,-0.8,1.8,2470.466,13.29,0.019,284.7
2021-07-04T00:22:03,42.805,6.029,-0.058,0.032,0.009,106.0,106.0,103.0,13.4,1505.2,329.3,-0.7,1.8,2470.513,13.29,0.066,298.9
2021-07-04T00:25:03,42.805,6.029,-0.009,-0.007,-0.015,104.0,106.0,104.0,13.4,1505.2,328.6,-0.7,1.8,2470.488,13.29,0.011,232.1
2021-07-04T00:28:03,42.805,6.029,-0.02,0.01,-0.022,106.0,106.0,104.0,13.3,1505.2,328.5,-0.8,1.8,2470.469,13.29,0.022,296.6
2021-07-04T00:31:03,42.805,6.029,-0.032,0.008,-0.001,105.0,106.0,103.0,13.3,1505.2,328.6,-0.7,1.8,2470.445,13.29,0.032,284.0
2021-07-04T00:34:03,42.805,6.029,0.001,0.019,-0.003,105.0,105.0,103.0,13.4,1505.2,327.8,-0.8,1.8,2470.465,13.29,0.019,3.0
2021-07-04T00:37:03,42.805,6.029,-0.026,0.0,0.003,105.0,105.0,102.0,13.4,1505.2,326.9,-0.7,1.9,2470.483,13.29,0.026,270.0
2021-07-04T00:40:03,42.805,6.029,-0.015,0.02,-0.007,106.0,106.0,103.0,13.4,1505.2,329.8,-0.7,1.8,2470.464,13.29,0.025,323.1
2021-07-04T00:43:03,42.805,6.029,-0.016,-0.005,0.014,105.0,106.0,105.0,13.4,1505.2,327.7,-0.7,1.8,2470.452,13.29,0.016,252.6
2021-07-04T00:46:03,42.805,6.029,-0.035,0.005,-0.022,105.0,106.0,104.0,13.4,1505.2,325.1,-0.7,1.8,2470.472,13.29,0.035,278.1
2021-07-04T00:49:03,42.805,6.029,-0.02,0.017,-0.012,105.0,106.0,103.0,13.4,1505.2,325.8,-0.8,1.8,2470.453,13.29,0.026,310.4
2021-07-04T00:52:03,42.805,6.029,-0.028,0.012,0.02,105.0,105.0,103.0,13.4,1505.2,329.9,-0.7,1.8,2470.419,13.29,0.03,293.2
2021-07-04T00:55:03,42.805,6.029,-0.016,0.007,-0.008,107.0,105.0,103.0,13.4,1505.2,328.9,-0.8,1.8,2470.43,13.29,0.017,293.6
2021-07-04T00:58:03,42.805,6.029,-0.035,0.022,0.002,107.0,105.0,104.0,13.4,1505.2,327.1,-0.8,1.8,2470.459,13.29,0.041,302.2
2021-07-04T01:04:03,42.805,6.029,-0.044,0.01,0.002,107.0,105.0,103.0,13.3,1505.2,325.4,-0.7,1.8,2470.507,13.28,0.045,282.8
2021-07-04T01:07:03,42.805,6.029,-0.021,0.011,0.004,106.0,105.0,103.0,13.3,1505.2,325.6,-0.7,1.8,2470.473,13.28,0.023,297.6
2021-07-04T01:10:03,42.805,6.029,-0.013,-0.012,-0.002,106.0,105.0,103.0,13.4,1505.2,330.0,-0.8,1.8,2470.479,13.29,0.017,227.3
2021-07-04T01:13:03,42.805,6.029,-0.013,0.0,0.008,106.0,104.0,103.0,13.4,1505.2,327.6,-0.8,1.8,2470.491,13.29,0.013,270.0
2021-07-04T01:16:03,42.805,6.029,-0.018,0.006,-0.011,106.0,105.0,104.0,13.4,1505.2,326.0,-0.7,1.8,2470.482,13.29,0.018,288.4
2021-07-04T01:19:03,42.805,6.029,-0.029,0.017,0.011,106.0,105.0,103.0,13.4,1505.2,328.8,-0.7,1.8,2470.48,13.29,0.033,300.4
2021-07-04T01:22:03,42.805,6.029,-0.019,0.023,0.017,106.0,104.0,104.0,13.4,1505.2,329.7,-0.7,1.8,2470.457,13.29,0.029,320.4
2021-07-04T01:25:03,42.805,6.029,-0.02,-0.001,-0.023,106.0,104.0,103.0,13.3,1505.2,329.1,-0.7,1.8,2470.46,13.29,0.02,267.1
2021-07-04T01:28:03,42.805,6.029,-0.02,-0.002,-0.006,106.0,105.0,103.0,13.3,1505.2,326.5,-0.8,1.8,2470.475,13.29,0.02,264.3
2021-07-04T01:31:03,42.805,6.029,-0.018,0.013,-0.011,106.0,105.0,103.0,13.4,1505.2,326.3,-0.8,1.8,2470.435,13.29,0.022,305.8
2021-07-04T01:34:03,42.805,6.029,-0.018,0.014,-0.009,106.0,104.0,103.0,13.4,1505.2,326.9,-0.8,1.9,2470.462,13.29,0.022,307.9
2021-07-04T01:37:03,42.805,6.029,-0.015,0.017,-0.011,106.0,105.0,103.0,13.3,1505.2,330.2,-0.7,1.8,2470.476,13.29,0.022,318.6
2021-07-04T01:40:03,42.805,6.029,-0.017,-0.002,0.0,105.0,107.0,102.0,13.4,1505.2,327.3,-0.7,1.8,2470.474,13.29,0.017,263.3
2021-07-04T01:43:03,42.805,6.029,-0.013,0.02,0.004,104.0,105.0,104.0,13.3,1505.2,325.7,-0.7,1.8,2470.465,13.29,0.023,327.0
2021-07-04T01:46:03,42.805,6.029,-0.027,0.01,-0.025,106.0,106.0,103.0,13.4,1505.2,328.6,-0.8,1.8,2470.455,13.29,0.028,290.3
2021-07-04T01:49:03,42.805,6.029,-0.02,0.011,0.01,106.0,106.0,103.0,13.4,1505.2,327.5,-0.8,1.8,2470.484,13.29,0.022,298.8
2021-07-04T01:52:03,42.805,6.029,-0.027,0.009,-0.008,106.0,106.0,103.0,13.3,1505.2,325.2,-0.7,1.8,2470.491,13.29,0.028,288.4
2021-07-04T01:55:03,42.805,6.029,-0.034,-0.002,-0.01,105.0,105.0,104.0,13.4,1505.2,329.4,-0.7,1.8,2470.509,13.29,0.034,266.6
2021-07-04T01:58:03,42.805,6.029,-0.025,0.017,0.028,106.0,106.0,103.0,13.4,1505.2,327.5,-0.7,1.8,2470.495,13.29,0.03,304.2
2021-07-04T02:04:03,42.805,6.029,-0.021,0.015,0.022,105.0,105.0,103.0,13.4,1505.2,328.7,-0.8,1.8,2470.509,13.28,0.025,305.5
2021-07-04T02:07:03,42.805,6.029,-0.008,-0.007,-0.022,106.0,106.0,103.0,13.4,1505.2,329.7,-0.7,1.8,2470.479,13.29,0.01,228.8
2021-07-04T02:10:03,42.805,6.029,0.002,0.015,0.011,105.0,106.0,104.0,13.4,1505.2,326.7,-0.7,1.8,2470.481,13.29,0.015,7.6
2021-07-04T02:13:03,42.805,6.029,0.0,-0.008,-0.01,105.0,106.0,103.0,13.4,1505.2,329.7,-0.7,1.8,2470.51,13.29,0.008,180.0
2021-07-04T02:16:03,42.805,6.029,-0.032,-0.023,-0.009,106.0,105.0,103.0,13.4,1505.2,326.6,-0.8,1.8,2470.495,13.29,0.039,234.3
2021-07-04T02:19:03,42.805,6.029,-0.008,0.018,-0.019,106.0,106.0,103.0,13.3,1505.2,327.8,-0.8,1.8,2470.486,13.29,0.019,336.0
2021-07-04T02:22:03,42.805,6.029,-0.015,0.016,-0.029,107.0,105.0,104.0,13.3,1505.2,327.4,-0.7,1.8,2470.511,13.29,0.021,316.9
2021-07-04T02:25:03,42.805,6.029,-0.004,0.014,-0.003,106.0,105.0,103.0,13.4,1505.2,330.0,-0.7,1.8,2470.523,13.29,0.014,344.1
2021-07-04T02:28:03,42.805,6.029,-0.004,0.004,0.019,105.0,107.0,102.0,13.4,1505.2,327.9,-0.8,1.9,2470.561,13.29,0.005,315.0
2021-07-04T02:31:03,42.805,6.029,-0.031,0.012,-0.034,106.0,104.0,103.0,13.4,1505.2,328.5,-0.7,1.8,2470.503,13.29,0.033,291.2
2021-07-04T02:34:03,42.805,6.029,-0.009,0.024,0.007,106.0,105.0,102.0,13.4,1505.2,324.6,-0.8,1.8,2470.455,13.29,0.025,339.4
2021-07-04T02:37:03,42.805,6.029,-0.028,0.012,0.015,105.0,105.0,104.0,13.4,1505.2,329.5,-0.7,1.8,2470.473,13.29,0.03,293.2
2021-07-04T02:40:03,42.805,6.029,-0.017,0.012,-0.007,104.0,106.0,103.0,13.3,1505.2,326.0,-0.8,1.8,2470.495,13.29,0.02,305.2
2021-07-04T02:43:03,42.805,6.029,-0.02,0.028,0.016,104.0,107.0,103.0,13.4,1505.2,328.7,-0.8,1.8,2470.513,13.29,0.034,324.5
2021-07-04T02:46:03,42.805,6.029,-0.01,0.017,-0.012,104.0,105.0,104.0,13.3,1505.2,325.4,-0.7,1.8,2470.495,13.29,0.019,329.5
2021-07-04T02:49:03,42.805,6.029,-0.019,0.004,-0.012,103.0,105.0,103.0,13.4,1505.2,327.0,-0.8,1.8,2470.489,13.29,0.019,281.9
2021-07-04T02:52:03,42.805,6.029,-0.009,0.011,-0.003,105.0,104.0,103.0,13.3,1505.2,325.5,-0.8,1.8,2470.492,13.29,0.014,320.7
2021-07-04T02:55:03,42.805,6.029,-0.031,0.008,-0.021,104.0,103.0,104.0,13.3,1505.2,327.4,-0.7,1.8,2470.514,13.29,0.032,284.5
2021-07-04T02:58:03,42.805,6.029,0.001,-0.009,-0.011,102.0,105.0,103.0,13.4,1505.2,326.3,-0.8,1.8,2470.515,13.29,0.009,173.7
2021-07-04T03:04:03,42.805,6.029,-0.02,0.013,0.002,105.0,105.0,103.0,13.4,1505.2,330.5,-0.8,1.9,2470.483,13.28,0.023,303.0
2021-07-04T03:07:03,42.805,6.029,-0.028,0.008,0.013,104.0,105.0,103.0,13.4,1505.2,325.9,-0.7,1.8,2470.517,13.28,0.029,285.9
2021-07-04T03:10:03,42.805,6.029,-0.013,0.02,-0.002,106.0,103.0,103.0,13.4,1505.2,328.8,-0.7,1.8,2470.479,13.28,0.023,327.0
2021-07-04T03:13:03,42.805,6.029,-0.036,0.012,-0.001,104.0,105.0,103.0,13.4,1505.2,325.8,-0.7,1.8,2470.54,13.29,0.037,288.4
2021-07-04T03:16:03,42.805,6.029,-0.016,0.017,-0.043,105.0,105.0,104.0,13.3,1505.2,328.0,-0.8,1.8,2470.545,13.29,0.023,316.7
2021-07-04T03:19:03,42.805,6.029,0.011,0.017,-0.013,105.0,105.0,103.0,13.4,1505.2,327.4,-0.8,1.8,2470.502,13.29,0.02,32.9
2021-07-04T03:22:03,42.805,6.029,-0.03,0.0,0.0,107.0,106.0,104.0,13.4,1505.2,325.0,-0.8,1.9,2470.511,13.29,0.03,270.0
2021-07-04T03:25:03,42.805,6.029,-0.008,0.02,-0.013,105.0,106.0,104.0,13.4,1505.2,330.0,-0.7,1.8,2470.483,13.29,0.021,338.2
2021-07-04T03:28:03,42.805,6.029,-0.017,-0.01,0.019,105.0,107.0,104.0,13.4,1505.2,328.9,-0.8,1.8,2470.515,13.29,0.019,239.5
2021-07-04T03:31:03,42.805,6.029,-0.019,0.019,-0.025,106.0,107.0,103.0,13.3,1505.2,325.1,-0.7,1.8,2470.482,13.29,0.026,315.0
2021-07-04T03:34:03,42.805,6.029,-0.031,0.023,0.006,105.0,107.0,103.0,13.3,1505.2,325.9,-0.8,1.8,2470.497,13.29,0.038,306.6
2021-07-04T03:37:03,42.805,6.029,-0.019,0.004,-0.023,105.0,107.0,103.0,13.4,1505.2,325.7,-0.7,1.8,2470.515,13.29,0.019,281.9
2021-07-04T03:40:03,42.805,6.029,-0.031,-0.001,-0.005,105.0,106.0,103.0,13.4,1505.2,327.5,-0.8,1.8,2470.523,13.29,0.031,268.2
2021-07-04T03:43:03,42.805,6.029,-0.024,0.015,0.025,105.0,105.0,104.0,13.4,1505.2,327.9,-0.7,1.8,2470.496,13.29,0.028,302.0
2021-07-04T03:46:03,42.805,6.029,-0.028,0.002,-0.007,104.0,105.0,103.0,13.3,1505.2,330.5,-0.8,1.8,2470.492,13.29,0.028,274.1
2021-07-04T03:49:03,42.805,6.029,-0.012,-0.007,-0.023,106.0,106.0,102.0,13.4,1505.2,324.9,-0.7,1.8,2470.531,13.29,0.013,239.7
2021-07-04T03:52:03,42.805,6.029,-0.012,-0.003,-0.008,105.0,105.0,104.0,13.4,1505.2,328.8,-0.7,1.8,2470.488,13.29,0.012,256.0
2021-07-04T03:55:03,42.805,6.029,-0.025,0.01,0.0,105.0,105.0,102.0,13.3,1505.2,328.7,-0.8,1.8,2470.482,13.29,0.026,291.8
2021-07-04T03:58:03,42.805,6.029,-0.044,0.021,0.012,105.0,105.0,103.0,13.4,1505.2,329.7,-0.8,1.8,2470.492,13.29,0.048,295.5
2021-07-04T04:04:03,42.805,6.029,-0.019,0.001,0.016,105.0,105.0,103.0,13.4,1505.2,325.0,-0.7,1.8,2470.502,13.28,0.019,273.0
2021-07-04T04:07:03,42.805,6.029,-0.026,0.006,-0.005,105.0,105.0,104.0,13.4,1505.2,329.4,-0.8,1.8,2470.501,13.28,0.026,283.0
2021-07-04T04:10:03,42.805,6.029,-0.017,0.0,-0.006,105.0,106.0,104.0,13.4,1505.2,328.6,-0.8,1.8,2470.536,13.29,0.017,270.0
2021-07-04T04:13:03,42.805,6.029,-0.014,0.004,0.023,106.0,105.0,103.0,13.4,1505.2,326.3,-0.7,1.8,2470.509,13.29,0.014,285.9
2021-07-04T04:16:03,42.805,6.029,-0.023,0.009,-0.028,105.0,105.0,104.0,13.4,1505.2,330.0,-0.8,1.8,2470.517,13.29,0.024,291.4
2021-07-04T04:19:03,42.805,6.029,-0.024,0.022,0.015,106.0,105.0,103.0,13.4,1505.2,328.2,-0.8,1.8,2470.498,13.29,0.032,312.5
2021-07-04T04:22:03,42.805,6.029,-0.041,0.02,0.015,105.0,104.0,103.0,13.4,1505.2,328.2,-0.7,1.8,2470.476,13.29,0.045,296.0
2021-07-04T04:25:03,42.805,6.029,-0.017,0.012,0.013,107.0,106.0,103.0,13.4,1505.2,327.5,-0.7,1.8,2470.521,13.29,0.02,305.2
2021-07-04T04:28:03,42.805,6.029,-0.036,0.03,-0.001,106.0,105.0,103.0,13.4,1505.2,329.8,-0.7,1.8,2470.48,13.29,0.046,309.8
2021-07-04T04:31:03,42.805,6.029,-0.036,0.017,0.014,106.0,105.0,101.0,13.4,1505.2,326.4,-0.8,1.8,2470.538,13.29,0.039,295.3
2021-07-04T04:34:03,42.805,6.029,-0.045,0.023,-0.002,105.0,106.0,103.0,13.3,1505.2,327.6,-0.7,1.8,2470.492,13.29,0.05,297.1
2021-07-04T04:37:03,42.805,6.029,-0.014,-0.006,-0.017,105.0,106.0,102.0,13.4,1505.2,325.6,-0.7,1.8,2470.513,13.29,0.015,246.8
2021-07-04T04:40:03,42.805,6.029,-0.023,0.017,0.006,105.0,106.0,102.0,13.3,1505.2,328.3,-0.8,1.8,2470.518,13.29,0.028,306.5
2021-07-04T04:43:03,42.805,6.029,-0.016,0.005,-0.007,106.0,106.0,102.0,13.4,1505.2,327.2,-0.7,1.8,2470.464,13.29,0.016,287.4
2021-07-04T04:46:03,42.805,6.029,-0.017,0.015,0.011,107.0,105.0,103.0,13.3,1505.2,326.5,-0.7,1.8,2470.454,13.29,0.022,311.4
2021-07-04T04:49:03,42.805,6.029,-0.023,0.019,-0.015,105.0,106.0,103.0,13.4,1505.2,328.8,-0.7,1.8,2470.449,13.29,0.029,309.6
2021-07-04T04:52:03,42.805,6.029,-0.003,0.004,-0.004,104.0,105.0,104.0,13.4,1505.2,325.2,-0.7,1.9,2470.479,13.29,0.005,323.1
2021-07-04T04:55:03,42.805,6.029,-0.023,0.015,-0.036,104.0,106.0,104.0,13.4,1505.2,330.1,-0.7,1.8,2470.481,13.29,0.027,303.1
2021-07-04T04:58:03,42.805,6.029,-0.023,0.002,-0.002,106.0,106.0,103.0,13.4,1505.2,326.6,-0.8,1.9,2470.495,13.29,0.023,275.0
2021-07-04T05:04:03,42.805,6.029,-0.023,-0.005,-0.017,106.0,105.0,102.0,13.3,1505.2,325.3,-0.7,1.8,2470.471,13.28,0.023,257.7
2021-07-04T05:07:03,42.805,6.029,-0.02,-0.007,-0.029,104.0,106.0,102.0,13.4,1505.2,324.7,-0.8,1.8,2470.508,13.28,0.021,250.7
2021-07-04T05:10:03,42.805,6.029,-0.018,0.018,0.005,107.0,105.0,104.0,13.4,1505.2,324.9,-0.8,1.8,2470.534,13.29,0.025,315.0
2021-07-04T05:13:03,42.805,6.029,-0.009,0.017,-0.027,107.0,105.0,104.0,13.4,1505.2,329.8,-0.8,1.8,2470.511,13.29,0.019,332.1
2021-07-04T05:16:03,42.805,6.029,-0.037,0.011,-0.034,105.0,106.0,103.0,13.4,1505.2,326.8,-0.8,1.8,2470.56,13.29,0.038,286.6
2021-07-04T05:19:03,42.805,6.029,-0.013,-0.008,-0.001,106.0,105.0,104.0,13.4,1505.2,326.0,-0.8,1.8,2470.489,13.29,0.015,238.4
2021-07-04T05:22:03,42.805,6.029,-0.031,0.012,0.015,106.0,106.0,103.0,13.4,1505.2,329.7,-0.8,1.8,2470.507,13.29,0.033,291.2
2021-07-04T05:25:03,42.805,6.029,-0.026,0.007,-0.027,106.0,106.0,104.0,13.3,1505.2,328.4,-0.7,1.8,2470.486,13.29,0.026,285.1
2021-07-04T05:28:03,42.805,6.029,-0.023,0.005,-0.01,105.0,106.0,104.0,13.4,1505.2,329.9,-0.7,1.9,2470.484,13.29,0.023,282.3
2021-07-04T05:31:03,42.805,6.029,-0.035,0.012,0.014,106.0,105.0,104.0,13.4,1505.2,326.1,-0.8,1.8,2470.49,13.29,0.037,288.9
2021-07-04T05:34:03,42.805,6.029,-0.035,0.019,-0.006,106.0,105.0,103.0,13.4,1505.2,326.5,-0.7,1.8,2470.462,13.29,0.039,298.5
2021-07-04T05:37:03,42.805,6.029,-0.038,0.0,-0.019,106.0,107.0,103.0,13.4,1505.2,328.6,-0.7,1.8,2470.479,13.29,0.038,270.0
2021-07-04T05:40:03,42.805,6.029,-0.017,0.0,0.005,106.0,106.0,102.0,13.4,1505.2,328.8,-0.8,1.8,2470.486,13.29,0.017,270.0
2021-07-04T05:43:03,42.805,6.029,-0.022,0.017,-0.01,108.0,107.0,102.0,13.4,1505.2,326.5,-0.8,1.8,2470.477,13.29,0.027,307.7
2021-07-04T05:46:03,42.805,6.029,-0.021,0.004,0.0,106.0,106.0,103.0,13.4,1505.2,327.6,-0.7,1.8,2470.491,13.29,0.021,280.8
2021-07-04T05:49:03,42.805,6.029,-0.022,-0.011,-0.012,105.0,107.0,102.0,13.3,1505.2,328.4,-0.8,1.8,2470.524,13.29,0.024,243.4
2021-07-04T05:52:03,42.805,6.029,-0.013,0.016,-0.014,105.0,105.0,103.0,13.4,1505.2,327.3,-0.8,1.8,2470.469,13.29,0.02,320.9
2021-07-04T05:55:03,42.805,6.029,-0.039,0.0,-0.006,104.0,106.0,104.0,13.4,1505.2,329.6,-0.7,1.8,2470.466,13.29,0.039,270.0
2021-07-04T05:58:03,42.805,6.029,-0.041,0.02,-0.016,105.0,106.0,104.0,13.4,1505.2,325.3,-0.7,1.8,2470.421,13.29,0.045,296.0
2021-07-04T06:04:03,42.805,6.029,-0.012,0.003,-0.001,105.0,106.0,103.0,13.4,1505.2,325.1,-0.7,1.8,2470.486,13.28,0.012,284.0
2021-07-04T06:07:03,42.805,6.029,-0.009,0.018,0.006,107.0,105.0,104.0,13.4,1505.2,327.9,-0.8,1.8,2470.487,13.28,0.02,333.4
2021-07-04T06:10:03,42.805,6.029,-0.025,0.016,-0.018,105.0,103.0,104.0,13.4,1505.2,326.4,-0.7,1.8,2470.489,13.29,0.029,302.6
2021-07-04T06:13:03,42.805,6.029,-0.015,0.013,-0.027,106.0,106.0,103.0,13.4,1505.2,324.6,-0.8,1.8,2470.453,13.29,0.019,310.9
2021-07-04T06:16:03,42.805,6.029,-0.035,0.005,0.018,106.0,107.0,103.0,13.4,1505.2,325.6,-0.7,1.8,2470.504,13.29,0.035,278.1
2021-07-04T06:19:03,42.805,6.029,-0.038,0.006,-0.023,106.0,105.0,106.0,13.4,1505.2,329.6,-0.7,1.8,2470.485,13.29,0.038,279.0
2021-07-04T06:22:03,42.805,6.029,-0.036,0.034,0.002,106.0,106.0,104.0,13.4,1505.2,326.4,-0.8,1.8,2470.456,13.29,0.049,313.4
2021-07-04T06:25:03,42.805,6.029,-0.044,0.033,0.009,106.0,106.0,105.0,13.4,1505.2,328.7,-0.8,1.8,2470.475,13.29,0.055,306.9
2021-07-04T06:28:03,42.805,6.029,-0.023,-0.01,0.009,106.0,107.0,103.0,13.4,1505.2,325.9,-0.7,1.8,2470.424,13.29,0.025,246.5
2021-07-04T06:31:03,42.805,6.029,-0.032,0.025,-0.01,105.0,105.0,104.0,13.4,1505.2,326.6,-0.8,1.8,2470.426,13.29,0.04,308.0
2021-07-04T06:34:03,42.805,6.029,-0.018,0.005,-0.004,107.0,107.0,104.0,13.3,1505.2,326.5,-0.8,1.9,2470.45,13.29,0.018,285.5
2021-07-04T06:37:03,42.805,6.029,-0.037,0.022,-0.005,107.0,105.0,104.0,13.4,1505.2,328.0,-0.7,1.8,2470.432,13.29,0.043,300.7
2021-07-04T06:40:03,42.805,6.029,-0.019,0.009,-0.016,106.0,106.0,105.0,13.3,1505.2,326.0,-0.8,1.8,2470.478,13.29,0.021,295.3
2021-07-04T06:43:03,42.805,6.029,-0.029,0.014,-0.032,105.0,106.0,104.0,13.4,1505.2,329.6,-0.8,1.8,2470.453,13.29,0.032,295.8
2021-07-04T06:46:03,42.805,6.029,-0.025,0.023,0.005,105.0,106.0,104.0,13.4,1505.2,326.0,-0.7,1.8,2470.428,13.29,0.033,312.6
2021-07-04T06:49:03,42.805,6.029,-0.021,0.009,0.002,107.0,106.0,104.0,13.4,1505.2,326.1,-0.7,1.8,2470.448,13.29,0.022,293.2
2021-07-04T06:52:03,42.805,6.029,-0.024,0.008,0.007,106.0,106.0,104.0,13.4,1505.2,327.2,-0.8,1.8,2470.472,13.29,0.025,288.4
2021-07-04T06:55:03,42.805,6.029,-0.011,0.023,0.011,105.0,107.0,104.0,13.4,1505.2,327.6,-0.8,1.8,2470.424,13.29,0.025,334.4
2021-07-04T06:58:03,42.805,6.029,-0.024,0.0,-0.03,108.0,105.0,104.0,13.4,1505.2,327.4,-0.7,1.8,2470.447,13.29,0.024,270.0
2021-07-04T07:04:03,42.805,6.029,-0.005,0.008,-0.003,106.0,106.0,103.0,13.3,1505.2,325.0,-0.8,1.8,2470.518,13.28,0.009,328.0
2021-07-04T07:07:03,42.805,6.029,-0.04,0.012,0.012,105.0,105.0,104.0,13.4,1505.2,326.3,-0.7,1.8,2470.479,13.28,0.041,286.7
2021-07-04T07:10:03,42.805,6.029,-0.018,0.0,-0.022,105.0,105.0,103.0,13.4,1505.2,329.3,-0.7,1.8,2470.399,13.28,0.018,270.0
2021-07-04T07:13:03,42.805,6.029,-0.019,0.022,0.001,105.0,105.0,105.0,13.3,1505.2,328.6,-0.8,1.8,2470.447,13.28,0.029,319.2
2021-07-04T07:16:03,42.805,6.029,-0.024,0.024,-0.006,105.0,107.0,104.0,13.4,1505.2,330.0,-0.8,1.8,2470.445,13.29,0.033,315.0
2021-07-04T07:19:03,42.805,6.029,-0.002,0.0,0.011,106.0,106.0,102.0,13.4,1505.2,325.2,-0.8,1.9,2470.442,13.29,0.002,270.0
2021-07-04T07:22:03,42.805,6.029,-0.004,0.023,0.01,106.0,107.0,103.0,13.4,1505.2,328.7,-0.7,1.8,2470.475,13.29,0.023,350.1
2021-07-04T07:25:03,42.805,6.029,-0.019,0.017,-0.017,105.0,106.0,104.0,13.3,1505.2,327.4,-0.7,1.9,2470.426,13.29,0.025,311.8
2021-07-04T07:28:03,42.805,6.029,-0.02,0.012,0.018,105.0,105.0,103.0,13.4,1505.2,326.1,-0.8,1.8,2470.434,13.29,0.023,301.0
2021-07-04T07:31:03,42.805,6.029,-0.035,0.018,-0.002,106.0,105.0,103.0,13.4,1505.2,326.1,-0.7,1.8,2470.439,13.29,0.039,297.2
2021-07-04T07:34:03,42.805,6.029,-0.024,0.011,0.0,106.0,106.0,103.0,13.4,1505.2,329.3,-0.7,1.8,2470.447,13.29,0.026,294.6
2021-07-04T07:37:03,42.805,6.029,-0.017,0.0,0.003,107.0,104.0,103.0,13.4,1505.2,327.5,-0.8,1.8,2470.408,13.29,0.017,270.0
2021-07-04T07:40:03,42.805,6.029,0.006,0.01,0.001,106.0,104.0,104.0,13.4,1505.2,327.1,-0.7,1.8,2470.423,13.29,0.011,31.0
2021-07-04T07:43:03,42.805,6.029,-0.02,0.017,0.007,105.0,105.0,104.0,13.4,1505.2,327.2,-0.8,1.8,2470.39,13.29,0.026,310.4
2021-07-04T07:46:03,42.805,6.029,-0.016,0.012,-0.003,107.0,107.0,104.0,13.4,1505.2,328.8,-0.8,1.8,2470.425,13.29,0.02,306.9
2021-07-04T07:49:03,42.805,6.029,-0.021,0.041,0.001,106.0,105.0,103.0,13.4,1505.2,328.6,-0.8,1.8,2470.419,13.29,0.046,332.9
2021-07-04T07:52:03,42.805,6.029,-0.023,0.005,0.004,105.0,106.0,102.0,13.4,1505.2,329.5,-0.8,1.8,2470.382,13.29,0.023,282.3
2021-07-04T07:55:03,42.805,6.029,-0.022,0.014,-0.039,105.0,105.0,103.0,13.4,1505.2,328.2,-0.8,1.9,2470.426,13.29,0.026,302.5
2021-07-04T07:58:03,42.805,6.029,-0.018,0.003,-0.022,106.0,105.0,104.0,13.4,1505.2,329.5,-0.8,1.8,2470.388,13.29,0.018,279.5
2021-07-04T08:04:03,42.805,6.029,-0.005,0.009,0.005,104.0,105.0,104.0,13.4,1505.2,325.1,-0.7,1.8,2470.453,13.28,0.01,330.9
2021-07-04T08:07:03,42.805,6.029,-0.017,0.025,-0.029,106.0,105.0,105.0,13.4,1505.2,324.7,-0.7,1.8,2470.423,13.28,0.03,325.8
2021-07-04T08:10:03,42.805,6.029,-0.007,-0.01,0.004,106.0,106.0,104.0,13.4,1505.2,327.8,-0.7,1.8,2470.419,13.28,0.012,215.0
2021-07-04T08:13:03,42.805,6.029,-0.033,0.008,-0.001,105.0,105.0,104.0,13.3,1505.2,329.2,-0.8,1.8,2470.409,13.28,0.033,283.6
2021-07-04T08:16:03,42.805,6.029,-0.008,0.024,0.029,106.0,104.0,104.0,13.4,1505.2,327.1,-0.8,1.8,2470.411,13.28,0.025,341.6
2021-07-04T08:19:03,42.805,6.029,-0.019,0.035,0.0,105.0,105.0,102.0,13.3,1505.2,328.3,-0.8,1.8,2470.436,13.29,0.039,331.5
2021-07-04T08:22:03,42.805,6.029,-0.017,0.018,-0.014,105.0,104.0,102.0,13.4,1505.2,326.7,-0.7,1.8,2470.387,13.28,0.024,316.6
2021-07-04T08:25:03,42.805,6.029,-0.033,0.027,0.013,106.0,106.0,101.0,13.4,1505.2,326.4,-0.7,1.8,2470.462,13.28,0.042,309.3
2021-07-04T08:28:03,42.805,6.029,-0.016,0.012,0.015,104.0,106.0,101.0,13.4,1505.2,326.4,-0.7,1.8,2470.422,13.29,0.02,306.9
2021-07-04T08:31:03,42.805,6.029,-0.025,0.008,0.001,105.0,105.0,102.0,13.4,1505.2,327.5,-0.8,1.8,2470.411,13.29,0.026,287.7
2021-07-04T08:34:03,42.805,6.029,-0.019,0.027,0.016,106.0,104.0,103.0,13.4,1505.2,324.9,-0.8,1.8,2470.416,13.28,0.033,324.9
2021-07-04T08:37:03,42.805,6.029,-0.01,0.009,0.003,104.0,104.0,101.0,13.4,1505.2,328.5,-0.7,1.8,2470.377,13.28,0.013,312.0
2021-07-04T08:40:03,42.805,6.029,-0.012,0.022,-0.011,105.0,103.0,102.0,13.3,1505.2,330.0,-0.8,1.8,2470.386,13.28,0.025,331.4
2021-07-04T08:43:03,42.805,6.029,0.003,0.012,0.005,104.0,104.0,103.0,13.4,1505.2,325.5,-0.7,1.8,2470.351,13.29,0.012,14.0
2021-07-04T08:46:03,42.805,6.029,-0.034,0.018,0.019,103.0,105.0,102.0,13.4,1505.2,328.1,-0.7,1.8,2470.426,13.29,0.038,297.9
2021-07-04T08:49:03,42.805,6.029,-0.018,0.019,0.008,104.0,105.0,102.0,13.3,1505.2,328.2,-0.8,1.9,2470.404,13.29,0.026,316.5
2021-07-04T08:52:03,42.805,6.029,-0.005,0.031,0.001,103.0,104.0,102.0,13.4,1505.2,327.3,-0.7,1.9,2470.397,13.29,0.031,350.8
2021-07-04T08:55:03,42.805,6.029,-0.036,0.01,-0.017,104.0,104.0,102.0,13.3,1505.2,325.4,-0.8,1.8,2470.401,13.29,0.037,285.5
2021-07-04T08:58:03,42.805,6.029,-0.008,0.0,0.015,105.0,105.0,101.0,13.4,1505.2,329.1,-0.8,1.9,2470.371,13.28,0.008,270.0
2021-07-04T09:04:03,42.805,6.029,-0.019,0.016,0.0,103.0,103.0,103.0,13.4,1505.2,326.3,-0.8,1.8,2470.422,13.28,0.024,310.1
2021-07-04T09:07:03,42.805,6.029,-0.011,-0.01,-0.009,102.0,105.0,102.0,13.4,1505.2,328.0,-0.7,1.8,2470.42,13.28,0.014,227.7
2021-07-04T09:10:03,42.805,6.029,-0.019,0.007,0.026,103.0,104.0,102.0,13.4,1505.2,329.5,-0.8,1.8,2470.413,13.28,0.02,290.2
2021-07-04T09:13:03,42.805,6.029,-0.013,0.013,0.007,104.0,104.0,102.0,13.4,1505.2,327.5,-0.7,1.8,2470.361,13.28,0.018,315.0
2021-07-04T09:16:03,42.805,6.029,-0.029,-0.005,0.0,104.0,104.0,102.0,13.3,1505.2,330.1,-0.8,1.8,2470.41,13.28,0.029,260.2
2021-07-04T09:19:03,42.805,6.029,-0.005,0.006,0.02,104.0,104.0,102.0,13.4,1505.2,328.1,-0.8,1.8,2470.403,13.28,0.007,320.2
2021-07-04T09:22:03,42.805,6.029,0.01,-0.008,0.03,103.0,103.0,102.0,13.4,1505.2,325.6,-0.7,1.8,2470.371,13.28,0.012,128.7
2021-07-04T09:25:03,42.805,6.029,-0.007,0.019,0.012,103.0,104.0,101.0,13.4,1505.2,328.2,-0.7,1.8,2470.405,13.28,0.02,339.8
2021-07-04T09:28:03,42.805,6.029,-0.014,0.008,0.015,104.0,105.0,101.0,13.3,1505.2,326.7,-0.8,1.8,2470.364,13.28,0.016,299.7
2021-07-04T09:31:03,42.805,6.029,-0.015,0.014,-0.002,104.0,103.0,101.0,13.3,1505.2,326.4,-0.7,1.8,2470.393,13.29,0.02,313.0
2021-07-04T09:34:03,42.805,6.029,-0.016,-0.011,-0.007,104.0,103.0,102.0,13.4,1505.2,327.2,-0.8,1.8,2470.385,13.28,0.019,235.5
2021-07-04T09:37:03,42.805,6.029,-0.004,0.019,-0.005,103.0,104.0,101.0,13.4,1505.2,325.3,-0.8,1.8,2470.356,13.29,0.019,348.1
2021-07-04T09:40:03,42.805,6.029,-0.031,0.022,0.021,104.0,105.0,101.0,13.4,1505.2,326.8,-0.8,1.8,2470.425,13.29,0.038,305.4
2021-07-04T09:43:03,42.805,6.029,-0.016,0.016,0.007,102.0,103.0,100.0,13.3,1505.2,326.5,-0.7,1.8,2470.394,13.28,0.022,315.0
2021-07-04T09:46:03,42.805,6.029,-0.014,0.022,0.004,102.0,103.0,102.0,13.4,1505.2,327.2,-0.8,1.8,2470.386,13.28,0.026,327.5
2021-07-04T09:49:03,42.805,6.029,-0.013,-0.01,0.008,102.0,103.0,102.0,13.4,1505.2,326.3,-0.8,1.8,2470.39,13.28,0.016,232.4
2021-07-04T09:52:03,42.805,6.029,-0.011,0.0,0.023,102.0,104.0,101.0,13.4,1505.2,325.5,-0.8,1.8,2470.392,13.28,0.011,270.0
2021-07-04T09:55:03,42.805,6.029,-0.02,0.008,-0.002,103.0,102.0,102.0,13.4,1505.2,329.1,-0.7,1.8,2470.401,13.28,0.021,291.8